Temperature
18 19 20 20 21 20 19 18 18 19 19 20 19 19 19 20 20 20 21 21 21 21 22 21 21 21 21 21 21 20 20 20 19 19 19 19 18 18 18 18 17 17 17 17
18 19 20 20 20 20 20 20 19 20 19 19 19 19 19 19 19 19 20 20 21 21 21 21 21 21 21 21 21 20 20 20 19 19 19 18 18 18 18 17 17 17 17 16
17 18 19 19 19 20 20 19 19 19 19 18 17 17 18 19 19 19 20 20 20 21 21 21 21 21 21 20 20 20 20 20 19 19 18 18 18 17 17 17 17 16 16 16
14 17 18 18 18 19 19 18 18 18 17 17 17 18 18 19 19 19 20 20 20 20 20 20 20 20 20 20 20 20 20 19 19 19 18 18 17 17 17 16 16 16 16 16
13 16 17 18 18 18 18 18 17 16 16 17 17 17 17 18 19 19 20 20 20 20 20 20 20 20 19 19 19 19 19 19 18 18 18 17 17 17 16 16 16 16 15 15
13 16 16 17 18 18 18 18 17 16 15 16 17 16 17 18 18 19 19 19 19 19 19 19 19 19 19 19 19 18 18 18 18 17 17 17 17 16 16 16 15 15 15 15
13 15 15 16 17 18 18 17 16 16 15 16 16 16 17 17 18 18 18 18 18 18 18 18 18 18 18 18 18 18 18 18 17 17 17 16 16 16 15 15 15 15 15 14
12 14 15 16 16 16 16 16 16 16 16 16 16 16 17 17 17 17 18 18 18 18 18 18 17 17 17 18 18 17 17 17 17 16 16 16 15 15 15 15 14 14 14 14
12 14 15 15 16 16 16 16 16 16 16 16 16 16 16 16 17 17 17 17 17 17 17 17 17 17 17 17 17 17 16 16 16 16 15 15 15 14 14 14 14 14 14 14
11 13 14 15 16 16 16 16 17 16 16 16 16 16 16 16 16 16 17 17 17 17 17 16 16 16 16 16 16 16 16 15 15 15 15 14 14 14 14 14 13 13 13 13
11 12 14 15 15 16 16 16 16 16 16 16 16 16 16 16 16 16 16 16 16 16 16 16 16 15 15 15 15 15 15 15 14 14 14 14 14 14 13 13 13 13 13 13
12 13 12 14 15 15 15 15 16 15 15 15 16 15 15 15 15 15 15 15 15 15 15 15 15 15 15 15 15 14 14 14 14 14 13 13 13 13 13 13 12 12 12 12
14 14 14 14 14 15 15 15 15 15 15 15 15 15 15 15 15 15 15 15 15 14 14 14 14 14 14 14 14 14 14 13 13 13 13 13 13 12 12 12 12 12 12 12
14 14 13 14 14 14 15 15 15 15 15 15 15 15 14 14 14 14 14 14 14 14 14 14 14 14 14 13 13 13 13 13 13 13 12 12 12 12 12 12 11 11 11 11
14 14 14 14 14 14 14 14 14 14 14 14 14 14 14 14 14 14 14 14 14 14 14 14 14 13 13 13 13 13 13 13 13 12 12 12 12 12 11 11 11 11 11 11
13 13 13 13 13 13 14 14 14 14 14 14 13 13 13 13 13 13 13 13 13 13 13 13 13 13 13 13 13 13 12 12 12 12 12 12 11 11 11 11 11 11 11 10
12 12 13 13 13 13 13 13 13 13 13 13 13 13 13 13 13 13 13 13 13 13 13 13 12 12 12 12 12 12 12 12 12 12 12 11 11 11 11 11 11 10 10 10
13 13 13 13 13 12 13 13 13 13 13 13 13 13 13 13 13 13 13 12 12 12 12 12 12 12 12 12 12 12 11 11 11 11 11 11 11 11 11 11 10 10 10 10
13 13 13 12 12 12 12 13 13 13 13 13 13 13 13 12 12 12 12 12 12 12 12 12 12 12 12 12 12 11 11 11 11 11 11 11 10 10 10 10 10 10 10 10
12 12 12 12 12 12 12 12 13 13 13 13 12 12 12 12 12 12 12 12 12 12 12 12 11 11 11 11 11 11 11 11 11 11 10 10 10 10 10 10 10 10 10 9
12 12 12 12 12 12 12 12 12 12 12 12 12 12 12 12 12 12 12 12 12 11 11 11 11 11 11 11 11 11 11 11 10 10 10 10 10 10 10 10 10 9 9 9
12 12 12 12 12 12 12 12 12 12 12 12 12 12 12 12 11 11 11 11 11 11 11 11 11 11 11 11 11 11 10 10 10 10 10 10 10 10 9 9 9 9 9 9
12 12 12 12 12 12 12 12 12 12 12 12 12 11 11 11 11 11 11 11 11 11 11 11 11 11 11 11 11 10 10 10 10 10 10 10 10 9 9 9 9 9 9 9
11 12 12 12 12 12 12 12 12 12 12 12 12 11 11 11 11 11 11 11 11 11 11 11 11 11 11 11 10 10 10 10 10 10 10 10 9 9 9 9 9 9 8 8
11 11 11 11 11 11 12 11 11 11 11 11 11 11 11 11 11 11 11 11 11 11 11 11 11 11 11 10 10 10 10 10 10 10 9 9 9 9 9 9 8 8 8 8
11 11 11 11 11 12 12 11 11 11 11 11 11 11 11 11 11 11 11 11 11 11 11 11 10 10 10 10 10 10 10 9 9 9 9 9 9 9 9 8 8 8 8 8
11 11 11 11 11 11 11 11 11 11 11 11 11 11 11 11 11 11 11 10 10 10 10 10 10 10 10 10 10 9 9 9 9 9 9 9 8 8 8 8 8 8 8 7
Wind_Speed
5 5 4 5 7 6 7 9 10 11 11 12 9 8 7 4 3 2 2 3 5 6 6 7 8 8 9 8 8 8 9 9 9 8 7 7 6 6 6 5 6 5 4 4
3 3 4 6 8 8 8 7 8 8 11 8 4 2 3 4 4 4 4 4 5 5 5 7 8 9 8 8 8 8 9 9 8 7 7 7 7 6 6 5 5 4 5 5
4 4 3 6 6 6 5 4 6 9 10 4 2 5 6 6 6 5 4 4 4 4 5 6 7 8 9 9 8 9 9 8 8 8 8 7 7 6 6 6 5 5 5 5
1 1 6 8 3 2 3 4 4 5 5 4 4 4 3 3 5 5 4 4 3 3 3 3 3 4 6 7 7 8 8 8 7 7 7 7 6 7 6 5 5 5 5 5
3 3 7 7 3 2 2 5 3 4 3 2 1 2 2 2 3 4 4 4 4 4 4 2 2 3 5 6 6 6 7 7 7 7 7 6 7 6 5 5 5 5 4 4
3 4 7 7 4 2 1 4 3 3 3 2 1 1 5 3 1 1 1 2 3 4 4 3 2 3 5 5 5 5 6 6 6 6 7 7 7 5 4 4 5 5 4 4
4 5 7 6 5 1 3 6 4 2 3 3 3 5 4 1 1 1 1 2 4 5 4 3 2 3 4 4 4 4 4 4 4 5 6 6 5 4 4 4 3 3 3 2
4 4 7 4 1 2 5 4 2 3 3 2 2 1 1 1 1 2 2 3 4 5 3 2 3 4 3 3 2 2 2 3 3 4 4 4 5 4 4 4 4 3 2 1
7 7 6 3 4 5 3 3 3 3 4 2 1 1 1 1 2 2 2 3 3 5 4 3 2 4 3 2 2 3 3 3 3 3 3 4 5 5 4 4 3 2 2 1
4 7 7 7 5 3 3 3 4 3 3 2 2 2 1 1 1 2 2 2 3 5 4 2 2 2 2 2 3 3 3 3 3 4 3 3 4 4 4 4 3 3 3 2
6 8 7 6 5 5 5 4 3 4 3 2 3 3 2 2 2 2 2 2 3 4 4 3 2 2 1 2 4 4 3 3 3 3 4 4 3 3 3 3 4 4 3 3
8 8 5 8 6 4 4 4 3 3 2 2 3 4 3 3 2 2 3 2 3 3 3 3 3 2 1 3 4 4 3 3 3 3 3 4 4 3 4 3 4 4 4 4
9 7 7 7 7 6 5 5 4 3 3 2 2 3 3 3 2 3 3 3 3 3 3 3 3 2 2 3 4 4 4 4 3 4 4 4 4 4 3 3 5 4 3 3
7 5 6 7 8 7 5 4 3 1 2 2 2 3 3 3 3 3 3 3 3 3 2 3 3 2 2 3 4 4 4 4 4 4 4 4 4 4 4 4 2 1 2 3
8 7 7 7 6 5 3 1 1 1 1 1 2 3 4 5 5 4 3 2 3 3 2 2 2 1 1 3 4 4 4 3 3 4 4 4 4 4 3 3 3 2 1 1
6 5 5 5 5 5 3 3 3 3 2 2 3 4 4 4 4 3 2 3 4 3 2 3 2 1 2 4 4 3 3 5 5 4 4 4 4 4 3 3 3 2 2 1
4 5 4 4 5 5 4 4 4 4 3 3 4 4 4 4 3 2 2 2 3 3 3 3 2 1 3 4 4 3 3 3 4 4 3 3 3 3 3 3 3 2 2 2
6 7 6 5 5 5 4 3 4 4 4 4 4 4 4 5 4 3 2 2 3 2 1 2 3 3 3 4 3 3 3 3 3 3 3 3 2 2 2 3 3 3 1 1
4 4 4 4 4 5 4 4 4 4 3 4 4 4 4 4 3 3 2 3 3 2 2 1 3 3 3 4 4 3 4 4 3 2 2 3 2 2 2 2 2 2 2 2
2 2 2 2 2 2 3 3 3 3 3 4 5 4 3 3 3 3 3 2 3 3 2 3 3 3 3 3 4 3 4 4 4 3 2 2 2 2 2 2 2 2 2 2
2 1 1 1 1 1 2 3 3 3 3 4 5 5 4 2 3 3 3 2 2 2 3 4 3 2 2 2 3 3 3 3 3 3 3 3 2 2 2 2 2 2 2 2
1 0 1 1 1 1 2 3 4 4 4 4 4 4 4 3 2 2 2 3 3 3 3 2 2 3 3 4 3 3 3 3 3 3 3 3 3 3 2 2 2 2 2 2
2 1 1 2 2 2 2 2 3 4 4 4 5 5 4 4 3 3 2 1 2 3 3 2 3 4 4 4 3 3 3 3 3 3 3 3 3 3 2 2 2 2 2 2
2 2 1 1 2 3 2 2 2 3 3 3 3 4 4 3 2 1 2 2 3 3 2 3 4 4 5 3 3 3 3 3 3 3 3 2 2 1 2 2 2 2 1 1
1 1 0 2 2 2 3 3 3 3 3 2 2 2 2 3 3 2 2 2 3 3 2 2 3 3 3 3 3 3 2 2 2 2 2 2 1 1 1 1 1 1 1 1
1 1 1 2 2 2 3 3 3 2 3 2 1 1 2 2 3 2 2 2 3 3 2 2 2 3 3 3 3 3 2 2 2 2 2 2 2 1 1 1 1 1 1 1
2 2 1 2 2 2 3 3 3 3 3 4 2 1 2 2 2 2 2 2 2 2 2 2 2 2 3 3 2 2 2 2 2 2 2 1 1 1 1 1 1 1 1 1
Wind_Direction
234 240 227 235 240 219 210 202 206 234 235 249 238 228 227 223 217 177 161 170 180 184 181 178 181 184 184 182 177 174 176 187 196 195 191 190 193 196 197 197 201 200 201 211
283 275 251 255 255 240 235 223 229 244 255 254 242 217 212 206 203 199 204 202 195 189 181 184 188 189 187 183 177 171 179 191 194 192 191 194 195 192 195 200 202 199 205 208
259 300 340 267 241 227 233 223 209 231 249 262 230 214 211 207 203 204 207 212 204 194 191 192 193 188 185 185 177 176 183 189 190 193 196 199 198 193 199 203 198 204 212 213
203 52 236 245 261 228 227 256 256 258 264 236 228 224 215 207 192 191 195 196 197 192 192 194 184 178 176 172 173 177 182 191 193 194 199 197 195 202 206 202 202 209 215 217
150 212 270 290 277 192 206 277 300 292 302 327 24 34 328 281 208 196 196 186 180 175 171 160 152 159 161 165 170 181 191 197 199 196 197 196 198 204 203 196 202 207 210 213
153 189 233 251 288 296 118 274 318 341 308 278 80 230 261 275 245 204 170 159 150 133 115 121 138 135 145 157 162 190 204 204 200 194 195 200 201 198 193 191 202 202 211 213
185 217 255 264 295 5 179 254 297 292 278 230 220 234 246 253 270 191 150 146 130 119 123 137 139 124 140 155 181 203 197 186 183 187 189 191 189 183 176 183 186 193 199 211
168 201 249 282 1 183 235 272 280 276 270 266 262 261 215 201 184 140 112 122 131 130 131 129 135 132 145 177 200 177 163 165 173 176 183 178 165 167 166 166 172 179 173 194
197 220 251 271 248 261 239 272 279 266 283 239 192 183 175 193 170 150 136 131 138 139 130 117 130 141 161 202 168 144 147 167 172 166 166 164 164 165 161 158 168 178 175 186
257 266 276 284 284 287 271 270 279 276 283 238 204 198 186 172 150 138 129 134 135 132 129 133 136 140 170 166 140 138 151 164 161 154 149 149 157 162 165 170 172 173 177 188
260 276 296 300 295 297 308 318 327 323 303 229 178 178 180 179 170 160 143 140 144 151 158 170 160 148 141 140 137 140 145 148 149 152 150 145 142 152 162 174 178 179 186 182
244 251 249 276 288 292 292 292 289 299 297 258 181 179 179 188 186 155 149 151 150 152 167 178 167 159 153 151 148 147 148 156 157 147 141 138 129 99 64 87 109 135 160 171
244 259 254 270 284 279 271 275 281 252 214 206 189 170 172 180 179 150 145 159 166 174 181 177 169 177 185 165 152 152 159 159 150 141 139 140 139 139 125 64 63 69 90 127
249 250 271 273 274 277 272 273 274 234 216 187 182 164 155 160 156 160 179 183 165 150 149 151 151 178 193 162 146 144 148 148 144 146 147 147 146 147 148 148 133 67 49 92
263 249 247 264 277 278 267 246 205 191 200 198 169 168 169 170 177 193 192 159 129 123 134 138 141 179 170 149 145 147 149 150 146 143 143 143 142 142 145 148 154 152 99 47
277 278 254 248 252 257 241 218 198 212 215 207 193 194 189 180 177 180 170 142 136 152 164 149 153 174 145 142 140 140 144 145 141 139 138 137 142 145 147 153 160 169 187 196
254 268 256 245 243 245 231 220 208 207 211 202 198 186 160 146 149 175 185 165 159 164 168 165 168 152 136 136 139 146 142 139 134 131 137 145 151 162 167 170 177 186 208 209
235 238 229 218 221 231 228 216 207 201 205 200 175 160 157 161 178 192 182 137 115 107 170 175 160 147 151 145 148 144 137 137 139 140 140 142 151 160 166 177 186 191 213 216
251 243 243 236 236 226 213 208 201 194 181 161 160 168 173 175 176 170 142 136 145 176 235 180 161 158 159 162 151 149 150 150 142 135 135 137 141 153 169 185 200 209 208 206
284 263 245 252 244 213 202 196 177 169 164 153 150 150 155 170 163 149 146 176 212 215 201 157 150 155 162 165 155 160 158 153 150 148 144 147 158 172 181 187 193 204 206 208
300 296 301 233 206 164 164 164 160 163 161 154 155 163 171 175 163 155 157 209 257 203 167 154 152 161 161 154 153 160 158 157 161 166 165 164 167 176 181 183 193 205 200 197
309 306 287 195 149 153 161 158 154 152 150 155 158 155 154 164 170 175 200 211 209 174 154 155 164 172 167 153 145 152 157 165 173 175 174 176 182 190 196 198 208 216 208 205
287 266 239 208 189 171 147 148 152 152 158 169 170 171 176 184 182 174 214 224 168 163 160 166 165 163 161 149 144 150 162 175 181 178 181 187 195 201 204 211 223 227 218 218
284 276 250 183 133 129 146 164 145 147 155 163 173 174 168 160 161 191 181 153 143 149 155 167 159 151 146 144 153 162 174 186 188 180 179 181 190 199 199 205 222 222 208 207
259 249 167 133 144 164 173 150 123 119 121 120 132 152 160 159 162 165 142 136 134 134 138 134 134 137 136 144 155 165 177 183 181 170 165 161 163 171 176 183 200 200 195 199
59 109 138 157 164 160 150 139 134 135 133 125 108 115 120 119 127 127 121 120 117 124 130 112 104 118 129 133 140 146 144 137 136 138 145 149 150 154 158 172 193 212 212 214
57 61 62 59 66 114 133 138 142 147 151 147 144 139 130 124 120 120 119 117 114 111 113 108 109 115 120 127 130 130 130 134 142 153 164 169 169 171 180 188 205 212 211 215
Height
1483 1480 1479 1478 1477 1479 1483 1486 1491 1483 1479 1467 1462 1461 1461 1461 1462 1463 1464 1465 1467 1469 1472 1475 1478 1481 1484 1487 1491 1495 1498 1500 1503 1506 1508 1510 1512 1514 1515 1517 1518 1519 1520 1521
1482 1477 1476 1475 1472 1472 1473 1474 1475 1472 1470 1458 1458 1459 1459 1460 1461 1462 1462 1464 1466 1468 1470 1472 1475 1478 1482 1484 1488 1491 1494 1497 1500 1502 1504 1506 1507 1509 1511 1512 1513 1514 1515 1516
1490 1481 1477 1481 1470 1468 1468 1466 1467 1469 1462 1457 1457 1457 1457 1458 1459 1461 1462 1463 1465 1466 1468 1471 1473 1475 1478 1482 1485 1487 1490 1493 1496 1498 1500 1501 1503 1504 1506 1507 1509 1510 1511 1512
1494 1486 1492 1475 1463 1462 1463 1463 1461 1460 1457 1455 1454 1454 1456 1457 1457 1459 1460 1462 1464 1465 1468 1470 1472 1474 1476 1479 1482 1484 1486 1489 1492 1494 1495 1496 1498 1499 1501 1503 1504 1505 1507 1507
1496 1494 1484 1470 1462 1462 1464 1463 1459 1459 1456 1455 1454 1455 1456 1456 1457 1457 1458 1460 1462 1464 1466 1467 1469 1471 1474 1476 1479 1481 1483 1485 1487 1489 1490 1492 1493 1495 1497 1498 1500 1501 1502 1503
1494 1491 1490 1471 1459 1457 1460 1464 1458 1457 1457 1456 1455 1458 1455 1455 1455 1456 1457 1459 1460 1462 1464 1466 1468 1470 1471 1473 1474 1477 1478 1481 1483 1485 1486 1488 1489 1491 1492 1494 1495 1496 1497 1498
1490 1488 1478 1464 1458 1457 1469 1466 1456 1455 1455 1455 1454 1454 1452 1453 1454 1455 1456 1457 1459 1461 1463 1465 1466 1467 1468 1470 1471 1474 1476 1478 1479 1481 1482 1483 1485 1487 1488 1490 1491 1492 1493 1494
1489 1487 1479 1459 1458 1461 1461 1455 1454 1453 1453 1453 1452 1450 1450 1451 1451 1452 1454 1455 1457 1459 1461 1463 1464 1465 1466 1467 1469 1471 1473 1474 1475 1477 1478 1479 1481 1482 1484 1485 1486 1488 1489 1490
1476 1473 1461 1457 1457 1456 1455 1453 1452 1452 1451 1451 1449 1449 1449 1449 1450 1451 1452 1453 1455 1457 1459 1461 1462 1463 1464 1465 1467 1468 1469 1470 1472 1473 1475 1476 1477 1478 1479 1481 1482 1483 1485 1486
1469 1461 1457 1455 1454 1452 1452 1451 1450 1449 1449 1448 1448 1448 1448 1448 1449 1450 1451 1452 1454 1455 1457 1458 1460 1461 1462 1464 1465 1466 1466 1467 1469 1470 1471 1472 1473 1475 1476 1477 1479 1480 1481 1482
1465 1459 1455 1452 1451 1450 1449 1448 1447 1447 1447 1447 1446 1446 1447 1447 1448 1448 1450 1452 1453 1454 1455 1456 1458 1459 1460 1461 1462 1463 1464 1465 1466 1467 1468 1469 1470 1472 1473 1474 1476 1477 1478 1479
1461 1455 1455 1451 1449 1448 1447 1446 1444 1444 1444 1444 1444 1445 1446 1446 1447 1448 1449 1451 1452 1452 1453 1455 1456 1457 1458 1459 1460 1461 1461 1462 1463 1464 1466 1467 1468 1470 1471 1473 1475 1476 1477 1478
1452 1450 1450 1448 1447 1446 1445 1444 1443 1442 1442 1442 1443 1444 1444 1445 1447 1448 1449 1450 1450 1451 1452 1453 1454 1455 1456 1457 1458 1459 1459 1460 1461 1463 1464 1466 1467 1468 1470 1472 1474 1475 1476 1477
1448 1447 1445 1444 1443 1442 1442 1441 1441 1441 1441 1441 1441 1442 1443 1444 1446 1447 1447 1449 1449 1450 1451 1452 1453 1454 1455 1456 1457 1458 1458 1459 1460 1462 1463 1465 1467 1468 1469 1470 1471 1473 1475 1476
1443 1443 1441 1440 1440 1439 1439 1439 1439 1439 1439 1439 1440 1441 1442 1443 1444 1446 1447 1447 1448 1449 1450 1451 1451 1453 1454 1455 1456 1457 1458 1459 1460 1461 1463 1464 1466 1467 1468 1469 1470 1471 1472 1474
1439 1438 1437 1436 1436 1436 1435 1436 1436 1436 1437 1437 1439 1440 1441 1442 1443 1445 1445 1446 1447 1448 1449 1450 1450 1451 1453 1454 1455 1457 1458 1459 1460 1461 1462 1463 1464 1465 1467 1468 1469 1470 1471 1472
1435 1433 1433 1433 1432 1432 1432 1433 1433 1434 1435 1436 1437 1439 1440 1441 1442 1444 1445 1446 1447 1448 1449 1450 1450 1451 1452 1453 1454 1456 1457 1459 1460 1460 1461 1462 1463 1464 1465 1466 1467 1468 1469 1470
1431 1431 1430 1430 1430 1430 1430 1431 1431 1432 1433 1434 1436 1437 1438 1440 1442 1443 1444 1445 1446 1447 1448 1449 1450 1451 1452 1452 1454 1455 1456 1458 1459 1459 1460 1461 1462 1464 1465 1465 1466 1466 1467 1468
1428 1428 1428 1428 1428 1428 1428 1428 1430 1431 1432 1433 1435 1436 1438 1440 1442 1443 1444 1445 1446 1446 1447 1448 1450 1451 1451 1453 1454 1455 1457 1457 1458 1459 1460 1461 1462 1463 1463 1464 1464 1464 1465 1465
1425 1425 1425 1425 1426 1426 1427 1428 1429 1430 1432 1433 1435 1436 1438 1440 1442 1443 1444 1444 1445 1446 1447 1448 1449 1450 1451 1452 1454 1455 1456 1457 1458 1459 1459 1460 1461 1462 1462 1462 1462 1463 1463 1463
1424 1424 1424 1424 1425 1426 1426 1427 1429 1430 1432 1433 1435 1436 1438 1440 1442 1443 1443 1444 1445 1446 1447 1448 1448 1449 1451 1452 1453 1454 1455 1456 1457 1458 1459 1459 1460 1461 1461 1461 1461 1461 1461 1461
1423 1423 1423 1424 1425 1425 1426 1428 1429 1430 1432 1434 1435 1437 1438 1440 1441 1442 1443 1444 1445 1446 1446 1447 1449 1450 1450 1451 1452 1453 1454 1456 1457 1458 1458 1459 1459 1459 1460 1459 1459 1460 1460 1460
1424 1423 1423 1424 1424 1425 1426 1427 1429 1430 1432 1433 1435 1437 1438 1439 1440 1441 1442 1444 1445 1446 1446 1447 1448 1449 1450 1451 1452 1453 1454 1455 1456 1456 1457 1457 1458 1458 1458 1458 1458 1458 1458 1458
1424 1423 1423 1424 1424 1424 1425 1427 1428 1430 1432 1433 1435 1436 1438 1439 1440 1441 1442 1444 1444 1445 1446 1447 1448 1448 1449 1450 1451 1452 1453 1454 1454 1455 1455 1456 1456 1456 1456 1456 1456 1456 1456 1456
1424 1423 1423 1423 1423 1424 1426 1427 1429 1430 1432 1434 1435 1437 1438 1439 1440 1441 1442 1443 1444 1445 1446 1447 1448 1448 1449 1450 1451 1452 1453 1453 1453 1454 1454 1454 1455 1455 1455 1455 1455 1454 1454 1454
1423 1423 1423 1423 1424 1425 1426 1427 1429 1431 1433 1434 1436 1437 1438 1439 1440 1441 1442 1443 1444 1445 1446 1446 1447 1448 1449 1450 1450 1451 1452 1452 1453 1453 1453 1453 1453 1453 1453 1453 1453 1453 1452 1452
1424 1424 1424 1424 1425 1426 1427 1428 1429 1431 1433 1434 1436 1437 1438 1440 1441 1441 1442 1443 1444 1445 1446 1446 1447 1448 1449 1449 1450 1450 1451 1451 1451 1452 1452 1452 1452 1452 1452 1452 1451 1451 1451 1450